When you browse on this site, cookies collect data to enhance your experience and personalize the content and advertising you see.
Visit our Privacy Policy to learn more. By continuing to use the site, you agree to this use of cookies and data.
  • In Romania
  • List of Countries
  • For 7 days
  • Water Temperature
  • Satellite Maps
  • Weather Map
  • Weather Widgets
  • user-avatar
    Login

    Hourly Weather San Juan

    Today, 22 March, Friday

    Time Temperature Precipitation Wind Pressure Humidity
    00:00 +19°C° 0 mm 2 mps 705 mmHg 46%
    01:00 +19°C° 0 mm 2 mps 705 mmHg 48%
    02:00 +19°C° 0 mm 1 mps 705 mmHg 50%
    03:00 +19°C° 0 mm 1 mps 705 mmHg 51%
    04:00 +16°C° 0 mm 0 mps 705 mmHg 53%
    05:00 +20°C° 0 mm 1 mps 706 mmHg 49%
    06:00 +21°C° 0 mm 1 mps 707 mmHg 45%
    07:00 +22°C° 0 mm 1 mps 707 mmHg 41%
    08:00 +24°C° 0 mm 1 mps 707 mmHg 38%
    09:00 +25°C° 0 mm 2 mps 707 mmHg 34%
    10:00 +27°C° 0 mm 2 mps 707 mmHg 31%
    11:00 +28°C° 0 mm 2 mps 707 mmHg 29%
    12:00 +29°C° 0 mm 2 mps 707 mmHg 26%
    13:00 +30°C° 0 mm 3 mps 706 mmHg 24%
    14:00 +30°C° 0 mm 3 mps 706 mmHg 24%
    15:00 +30°C° 0 mm 3 mps 705 mmHg 23%
    16:00 +30°C° 0 mm 3 mps 705 mmHg 23%
    17:00 +29°C° 0 mm 3 mps 706 mmHg 27%
    18:00 +27°C° 0 mm 2 mps 706 mmHg 31%
    19:00 +25°C° 0 mm 2 mps 706 mmHg 35%
    20:00 +25°C° 0 mm 2 mps 706 mmHg 37%
    21:00 +24°C° 0 mm 1 mps 707 mmHg 39%
    22:00 +23°C° 0 mm 1 mps 707 mmHg 41%
    23:00 +23°C° 0 mm 2 mps 706 mmHg 40%

    Tomorrow, 23 March, Saturday

    Time Temperature Precipitation Wind Pressure Humidity
    00:00 +22°C° 0 mm 3 mps 706 mmHg 39%
    01:00 +22°C° 0 mm 3 mps 706 mmHg 39%
    02:00 +22°C° 0 mm 3 mps 706 mmHg 40%
    03:00 +21°C° 0 mm 3 mps 705 mmHg 42%
    04:00 +21°C° 0 mm 3 mps 705 mmHg 44%
    05:00 +22°C° 0 mm 3 mps 705 mmHg 42%
    06:00 +24°C° 0 mm 3 mps 706 mmHg 40%
    07:00 +25°C° 0 mm 3 mps 706 mmHg 38%
    08:00 +27°C° 0 mm 3 mps 706 mmHg 34%
    09:00 +29°C° 0 mm 3 mps 706 mmHg 30%
    10:00 +31°C° 0 mm 3 mps 706 mmHg 26%
    11:00 +33°C° 0 mm 3 mps 706 mmHg 24%
    12:00 +34°C° 0 mm 3 mps 705 mmHg 22%
    13:00 +34°C° 0 mm 3 mps 705 mmHg 20%
    14:00 +34°C° 0 mm 4 mps 705 mmHg 21%
    15:00 +34°C° 0 mm 4 mps 704 mmHg 22%
    16:00 +34°C° 0 mm 5 mps 704 mmHg 23%
    17:00 +33°C° 0 mm 5 mps 705 mmHg 26%
    18:00 +30°C° 0 mm 4 mps 706 mmHg 30%
    19:00 +29°C° 0 mm 4 mps 706 mmHg 33%
    20:00 +28°C° 0 mm 4 mps 707 mmHg 33%
    21:00 +28°C° 0 mm 3 mps 708 mmHg 33%
    22:00 +27°C° 0 mm 3 mps 708 mmHg 34%
    23:00 +26°C° 0 mm 3 mps 708 mmHg 36%

    Day after tomorrow, 24 March, Sunday

    Time Temperature Precipitation Wind Pressure Humidity
    00:00 +26°C° 0 mm 3 mps 709 mmHg 38%
    01:00 +25°C° 0 mm 3 mps 709 mmHg 39%
    02:00 +25°C° 0 mm 4 mps 709 mmHg 43%
    03:00 +25°C° 0 mm 5 mps 709 mmHg 46%
    04:00 +23°C° 0 mm 6 mps 709 mmHg 49%
    05:00 +23°C° 0 mm 7 mps 709 mmHg 41%
    06:00 +23°C° 0 mm 7 mps 709 mmHg 33%
    07:00 +22°C° 0 mm 7 mps 710 mmHg 25%
    08:00 +23°C° 0 mm 7 mps 710 mmHg 23%
    09:00 +24°C° 0 mm 6 mps 710 mmHg 21%
    10:00 +26°C° 0 mm 6 mps 710 mmHg 19%
    11:00 +27°C° 0 mm 5 mps 709 mmHg 20%
    12:00 +27°C° 0 mm 5 mps 708 mmHg 20%
    13:00 +28°C° 0 mm 5 mps 708 mmHg 20%
    14:00 +28°C° 0 mm 5 mps 707 mmHg 20%
    15:00 +28°C° 0 mm 4 mps 707 mmHg 21%
    16:00 +28°C° 0 mm 4 mps 706 mmHg 21%
    17:00 +27°C° 0 mm 4 mps 707 mmHg 23%
    18:00 +25°C° 0 mm 3 mps 707 mmHg 25%
    19:00 +24°C° 0 mm 3 mps 708 mmHg 27%
    20:00 +24°C° 0 mm 3 mps 708 mmHg 27%
    21:00 +22°C° 0 mm 3 mps 708 mmHg 27%
    22:00 +22°C° 0 mm 3 mps 709 mmHg 27%
    23:00 +21°C° 0 mm 3 mps 708 mmHg 28%

    25 March, Monday

    Time Temperature Precipitation Wind Pressure Humidity
    00:00 +20°C° 0 mm 3 mps 708 mmHg 30%
    01:00 +20°C° 0 mm 2 mps 708 mmHg 32%
    02:00 +20°C° 0 mm 2 mps 707 mmHg 32%
    03:00 +20°C° 0 mm 2 mps 707 mmHg 32%
    04:00 +19°C° 0 mm 2 mps 707 mmHg 33%
    05:00 +20°C° 0 mm 2 mps 707 mmHg 32%
    06:00 +20°C° 0 mm 2 mps 708 mmHg 32%
    07:00 +20°C° 0 mm 3 mps 708 mmHg 31%
    08:00 +21°C° 0 mm 3 mps 708 mmHg 31%
    09:00 +22°C° 0 mm 3 mps 708 mmHg 30%
    10:00 +24°C° 0 mm 3 mps 708 mmHg 29%
    11:00 +25°C° 0 mm 3 mps 707 mmHg 29%
    12:00 +26°C° 0 mm 3 mps 706 mmHg 29%
    13:00 +27°C° 0 mm 3 mps 706 mmHg 29%
    14:00 +27°C° 0 mm 3 mps 705 mmHg 29%
    15:00 +27°C° 0 mm 3 mps 705 mmHg 29%
    16:00 +27°C° 0 mm 3 mps 705 mmHg 29%
    17:00 +26°C° 0 mm 3 mps 706 mmHg 31%
    18:00 +25°C° 0 mm 3 mps 706 mmHg 33%
    19:00 +24°C° 0 mm 3 mps 707 mmHg 35%
    20:00 +22°C° 0 mm 3 mps 707 mmHg 36%
    21:00 +23°C° 0 mm 2 mps 708 mmHg 37%
    22:00 +21°C° 0 mm 2 mps 708 mmHg 38%
    23:00 +21°C° 0 mm 2 mps 708 mmHg 38%

    26 March, Tuesday

    Time Temperature Precipitation Wind Pressure Humidity
    00:00 +21°C° 0 mm 2 mps 708 mmHg 39%
    01:00 +20°C° 0 mm 2 mps 708 mmHg 40%
    02:00 +20°C° 0 mm 2 mps 708 mmHg 42%
    03:00 +19°C° 0 mm 2 mps 708 mmHg 43%
    04:00 +19°C° 0 mm 2 mps 708 mmHg 45%
    05:00 +19°C° 0 mm 2 mps 708 mmHg 46%
    06:00 +20°C° 0 mm 3 mps 709 mmHg 48%
    07:00 +20°C° 0 mm 4 mps 710 mmHg 50%
    08:00 +21°C° 0 mm 4 mps 710 mmHg 49%
    09:00 +22°C° 0 mm 4 mps 710 mmHg 48%
    10:00 +23°C° 0 mm 4 mps 710 mmHg 48%
    11:00 +23°C° 0 mm 4 mps 709 mmHg 47%
    12:00 +25°C° 0 mm 5 mps 709 mmHg 46%
    13:00 +25°C° 0 mm 5 mps 708 mmHg 46%
    14:00 +25°C° 0 mm 5 mps 708 mmHg 48%
    15:00 +23°C° 0 mm 6 mps 708 mmHg 51%
    16:00 +22°C° 0 mm 6 mps 708 mmHg 53%
    17:00 +20°C° 0 mm 6 mps 708 mmHg 61%
    18:00 +19°C° 0 mm 6 mps 709 mmHg 69%
    19:00 +16°C° 0 mm 5 mps 709 mmHg 78%
    20:00 +17°C° 0 mm 4 mps 709 mmHg 78%
    21:00 +17°C° 0 mm 3 mps 710 mmHg 79%
    22:00 +16°C° 0 mm 2 mps 710 mmHg 80%
    23:00 +16°C° 0 mm 2 mps 710 mmHg 81%

    27 March, Wednesday

    Time Temperature Precipitation Wind Pressure Humidity
    00:00 +16°C° 0 mm 2 mps 709 mmHg 81%
    01:00 +16°C° 0 mm 1 mps 709 mmHg 82%
    02:00 +16°C° 0 mm 1 mps 709 mmHg 84%
    03:00 +15°C° 0 mm 1 mps 708 mmHg 85%
    04:00 +14°C° 0 mm 0 mps 708 mmHg 86%
    05:00 +16°C° 0 mm 1 mps 708 mmHg 84%
    06:00 +16°C° 0 mm 1 mps 708 mmHg 81%
    07:00 +17°C° 0 mm 2 mps 708 mmHg 78%
    08:00 +18°C° 0 mm 2 mps 708 mmHg 68%
    09:00 +20°C° 0 mm 3 mps 708 mmHg 58%
    10:00 +22°C° 0 mm 4 mps 708 mmHg 49%
    11:00 +24°C° 0 mm 3 mps 707 mmHg 45%
    12:00 +25°C° 0 mm 3 mps 706 mmHg 41%
    13:00 +26°C° 0 mm 2 mps 706 mmHg 36%
    14:00 +26°C° 0 mm 2 mps 706 mmHg 35%
    15:00 +27°C° 0 mm 2 mps 705 mmHg 34%
    16:00 +27°C° 0 mm 2 mps 705 mmHg 33%
    17:00 +25°C° 0 mm 2 mps 706 mmHg 37%
    18:00 +24°C° 0 mm 2 mps 706 mmHg 41%
    19:00 +23°C° 0 mm 2 mps 707 mmHg 45%
    20:00 +21°C° 0 mm 2 mps 707 mmHg 49%
    21:00 +21°C° 0 mm 1 mps 707 mmHg 52%
    22:00 +20°C° 0 mm 1 mps 707 mmHg 56%
    23:00 +20°C° 0 mm 1 mps 707 mmHg 58%
    Show more